St. Francis, KS

7:39 PM CST on December 14, 2017 (GMT -0600)
Cheyenne County Municipal

Weather History for KSYF - November, 2012

Change the Weather History Date:

Friday, November 9, 2012

  Actual Average Record
Temperature  
Mean Temperature 46 °F -  
Max Temperature 64 °F 53 °F 76 °F (2014)
Min Temperature 28 °F 27 °F 19 °F (2017)
Degree Days  
Heating Degree Days 19    
Moisture  
Dew Point 31 °F    
Average Humidity 66    
Maximum Humidity 92    
Minimum Humidity 29    
Precipitation  
Precipitation 0.00 in - - ()
Sea Level Pressure  
Sea Level Pressure 29.71 in    
Wind  
Wind Speed 4 mph ()    
Max Wind Speed 16 mph    
Max Gust Speed 18 mph    
Visibility 10.0 miles    
Events      
Averages and records for this station are not official NWS values.
T = Trace of Precipitation, MM = Missing Value Source: Averaged Metar Reports

Daily Weather History Graph

Daily Weather History Graph

Search for Another Location

Airport or City:

Trip Planner

Search our weather history database for the weather conditions in past years. The results will help you decide how hot, cold, wet, or windy it might be!

Date:

Astronomy

Nov. 09, 2012 Rise Set
Actual Time 7:25 AM CST 5:36 PM CST
Civil Twilight 6:57 AM CST 6:04 PM CST
Nautical Twilight 6:24 AM CST 6:36 PM CST
Astronomical Twilight 5:52 AM CST 7:08 PM CST
Moon 2:27 AM CST (11/9) 2:49 PM CST (11/9)
Length of Visible Light 11h 07m
Length of Day
10h 10m
Waning Crescent, 23% of the Moon is Illuminated
Nov 9
Waning Crescent
Nov 13
New
Nov 20
First Quarter
Nov 28
Full
Dec 6
Last Quarter

Hourly Weather History & Observations

Time (CST) Temp. Windchill Dew Point Humidity Pressure Visibility Wind Dir Wind Speed Gust Speed Precip Events Conditions
12:15 AM 39.6 °F - 30.2 °F 69% 29.83 in 10.0 mi Calm Calm - N/A   Clear
12:35 AM 37.8 °F - 30.0 °F 74% 29.82 in 10.0 mi Calm Calm - N/A   Clear
12:55 AM 38.8 °F - 30.2 °F 71% 29.81 in 10.0 mi Calm Calm - N/A   Clear
1:15 AM 35.6 °F 32.8 °F 29.1 °F 77% 29.81 in 10.0 mi NE 3.5 mph - N/A   Clear
1:35 AM 35.8 °F 33.0 °F 29.1 °F 77% 29.81 in 10.0 mi NNE 3.5 mph - N/A   Clear
1:55 AM 35.1 °F 32.2 °F 28.8 °F 78% 29.82 in 10.0 mi NNE 3.5 mph - N/A   Clear
2:15 AM 34.7 °F 30.6 °F 29.5 °F 81% 29.81 in 10.0 mi NE 4.6 mph - N/A   Clear
2:35 AM 34.9 °F 32.0 °F 29.3 °F 80% 29.80 in 10.0 mi ENE 3.5 mph - N/A   Clear
2:55 AM 34.5 °F - 29.7 °F 82% 29.79 in 10.0 mi Calm Calm - N/A   Clear
3:15 AM 34.7 °F - 28.9 °F 79% 29.81 in 10.0 mi Calm Calm - N/A   Clear
3:35 AM 32.2 °F - 27.5 °F 83% 29.80 in 10.0 mi Calm Calm - N/A   Clear
3:55 AM 30.6 °F 27.1 °F 26.8 °F 86% 29.79 in 10.0 mi North 3.5 mph - N/A   Clear
4:15 AM 32.0 °F - 28.0 °F 85% 29.79 in 10.0 mi Calm Calm - N/A   Clear
4:35 AM 32.0 °F - 27.7 °F 84% 29.81 in 10.0 mi Calm Calm - N/A   Clear
4:55 AM 31.1 °F 27.7 °F 27.5 °F 87% 29.80 in 10.0 mi North 3.5 mph - N/A   Clear
5:15 AM 31.1 °F 27.7 °F 27.7 °F 87% 29.81 in 10.0 mi North 3.5 mph - N/A   Clear
5:35 AM 31.1 °F 26.4 °F 27.5 °F 87% 29.80 in 10.0 mi NE 4.6 mph - N/A   Clear
5:55 AM 30.4 °F 24.5 °F 27.5 °F 89% 29.79 in 10.0 mi ENE 5.8 mph - N/A   Clear
6:15 AM 31.1 °F 25.4 °F 28.0 °F 88% 29.78 in 10.0 mi ENE 5.8 mph - N/A   Clear
6:35 AM 31.6 °F 28.3 °F 28.4 °F 88% 29.79 in 10.0 mi NNE 3.5 mph - N/A   Clear
6:55 AM 31.3 °F - 28.4 °F 89% 29.80 in 10.0 mi Calm Calm - N/A   Clear
7:15 AM 30.6 °F - 27.5 °F 88% 29.79 in 10.0 mi Calm Calm - N/A   Clear
7:35 AM 28.4 °F 22.2 °F 25.5 °F 89% 29.78 in 10.0 mi ENE 5.8 mph - N/A   Clear
7:55 AM 29.3 °F - 27.1 °F 92% 29.79 in 10.0 mi Calm Calm - N/A   Clear
8:15 AM 30.0 °F - 28.0 °F 92% 29.80 in 10.0 mi Calm Calm - N/A   Clear
8:35 AM 33.8 °F - 30.9 °F 89% 29.81 in 10.0 mi Calm Calm - N/A   Clear
8:55 AM 33.1 °F - 29.5 °F 87% 29.81 in 10.0 mi Calm Calm - N/A   Clear
9:15 AM 34.3 °F 29.2 °F 30.6 °F 86% 29.79 in 10.0 mi NE 5.8 mph - N/A   Clear
9:35 AM 37.4 °F 32.8 °F 31.5 °F 79% 29.79 in 10.0 mi ENE 5.8 mph - N/A   Clear
9:55 AM 41.5 °F 36.4 °F 32.4 °F 70% 29.77 in 10.0 mi East 8.1 mph - N/A   Clear
10:15 AM 44.6 °F 40.7 °F 33.1 °F 64% 29.77 in 10.0 mi ENE 6.9 mph - N/A   Clear
10:35 AM 46.0 °F 42.5 °F 33.3 °F 61% 29.76 in 10.0 mi East 6.9 mph - N/A   Clear
10:55 AM 48.2 °F - 33.4 °F 57% 29.76 in 10.0 mi East 5.8 mph - N/A   Clear
11:15 AM 50.2 °F - 33.8 °F 53% 29.75 in 10.0 mi East 6.9 mph - N/A   Clear
11:35 AM 51.8 °F - 34.2 °F 51% 29.74 in 10.0 mi ESE 6.9 mph - N/A   Clear
11:55 AM 53.6 °F - 34.3 °F 48% 29.72 in 10.0 mi East 4.6 mph - N/A   Clear
12:15 PM 54.9 °F - 34.5 °F 46% 29.71 in 10.0 mi SE 9.2 mph - N/A   Clear
12:35 PM 55.4 °F - 34.0 °F 44% 29.70 in 10.0 mi SE 6.9 mph - N/A   Clear
12:55 PM 56.3 °F - 33.8 °F 43% 29.68 in 10.0 mi SE 6.9 mph - N/A   Clear
1:15 PM 56.7 °F - 33.3 °F 41% 29.67 in 10.0 mi ESE 9.2 mph - N/A   Clear
1:35 PM 58.1 °F - 33.1 °F 39% 29.67 in 10.0 mi ESE 6.9 mph - N/A   Clear
1:55 PM 59.0 °F - 33.3 °F 38% 29.66 in 10.0 mi SSE 8.1 mph - N/A   Clear
2:15 PM 61.0 °F - 32.4 °F 34% 29.65 in 10.0 mi SSE 8.1 mph - N/A   Clear
2:35 PM 61.9 °F - 32.4 °F 33% 29.65 in 10.0 mi SE 10.4 mph - N/A   Clear
2:55 PM 62.4 °F - 32.0 °F 32% 29.65 in 10.0 mi ESE 9.2 mph 16.1 mph N/A   Clear
3:15 PM 63.5 °F - 32.0 °F 31% 29.63 in 10.0 mi SE 13.8 mph - N/A   Clear
3:35 PM 64.4 °F - 32.0 °F 30% 29.62 in 10.0 mi ESE 11.5 mph 17.3 mph N/A   Clear
3:55 PM 64.4 °F - 32.0 °F 30% 29.61 in 10.0 mi SE 12.7 mph - N/A   Clear
4:15 PM 64.4 °F - 31.6 °F 29% 29.61 in 10.0 mi SE 16.1 mph - N/A   Clear
4:35 PM 63.7 °F - 31.6 °F 30% 29.61 in 10.0 mi ESE 13.8 mph 18.4 mph N/A   Clear
4:55 PM 62.2 °F - 32.0 °F 32% 29.61 in 10.0 mi ESE 10.4 mph - N/A   Clear
5:15 PM 59.9 °F - 32.5 °F 36% 29.61 in 10.0 mi ESE 10.4 mph - N/A   Clear
5:35 PM 56.5 °F - 33.4 °F 42% 29.60 in 10.0 mi ESE 9.2 mph - N/A   Clear
5:55 PM 53.6 °F - 33.8 °F 47% 29.60 in 10.0 mi ESE 10.4 mph - N/A   Clear
6:15 PM 53.2 °F - 33.8 °F 48% 29.59 in 10.0 mi ESE 11.5 mph - N/A   Clear
6:35 PM 51.8 °F - 34.0 °F 51% 29.58 in 10.0 mi ESE 13.8 mph - N/A   Clear
6:55 PM 49.6 °F - 34.0 °F 55% 29.59 in 10.0 mi East 5.8 mph - N/A   Clear
7:15 PM 46.8 °F - 34.0 °F 61% 29.60 in 10.0 mi ENE 6.9 mph - N/A   Clear
7:35 PM 47.3 °F - 34.2 °F 60% 29.60 in 10.0 mi East 8.1 mph - N/A   Clear
7:55 PM 45.3 °F 42.3 °F 33.6 °F 64% 29.61 in 10.0 mi ENE 5.8 mph - N/A   Clear
8:15 PM 42.8 °F 41.1 °F 33.1 °F 69% 29.61 in 10.0 mi NNW 3.5 mph - N/A   Clear
8:35 PM 44.4 °F 41.2 °F 34.2 °F 67% 29.61 in 10.0 mi ESE 5.8 mph - N/A   Clear
8:55 PM 43.0 °F - 33.8 °F 70% 29.62 in 10.0 mi Calm Calm - N/A   Clear
9:15 PM 41.7 °F 36.1 °F 33.6 °F 73% 29.61 in 10.0 mi SE 9.2 mph - N/A   Clear
9:35 PM 40.8 °F 38.8 °F 33.4 °F 75% 29.61 in 10.0 mi ESE 3.5 mph - N/A   Clear
9:55 PM 39.7 °F - 32.9 °F 77% 29.62 in 10.0 mi Calm Calm - N/A   Clear
10:15 PM 37.8 °F - 32.7 °F 82% 29.61 in 10.0 mi Calm Calm - N/A   Clear
10:35 PM 39.4 °F 33.2 °F 33.3 °F 79% 29.61 in 10.0 mi ESE 9.2 mph - N/A   Clear
10:55 PM 40.1 °F 36.1 °F 33.4 °F 77% 29.60 in 10.0 mi SSE 5.8 mph - N/A   Clear
11:15 PM 36.1 °F - 32.0 °F 85% 29.59 in 10.0 mi Calm Calm - N/A   Clear
11:35 PM 37.2 °F - 32.5 °F 83% 29.59 in 10.0 mi Calm Calm - N/A   Clear
11:55 PM 39.0 °F - 33.8 °F 82% 29.58 in 10.0 mi Calm Calm - N/A   Clear